Regional Weather Roundup
Issued by NWS Portland, ME

Home | Current Version | Previous Version | Text Only | Print | Product List | Glossary On
Versions: 1 2 3 4 5 6 7 8 9 10 11 12 13 14 15 16 17 18 19 20 21 22 23 24 25 26 27 28 29 30 31 32 33 34 35 36 37 38 39 40 41 42 43 44 45 46 47 48 49 50
000
ASUS41 KGYX 271010
RWRGYX
WEATHER ROUNDUP FOR MAINE AND NEW HAMPSHIRE
NATIONAL WEATHER SERVICE GRAY ME
600 AM EDT MON MAR 27 2017

MEZ002-005-006-010-012-015-018-020-021-024-026-027-029-271100-
MAINE

CITY           SKY/WX    TMP DP  RH WIND       PRES   REMARKS
PORTLAND       CLOUDY    34  32  92 SE5       30.32F FOG
SANFORD        MIX PCPN  33  31  92 E5        30.29F
BAR HARBOR     CLOUDY    29  27  92 NE5       30.39F
WISCASSET      CLOUDY    33  30  88 E5        30.34F
ROCKLAND       CLOUDY    32  29  88 NE3       30.36F
FRYEBURG       CLOUDY    31  29  92 CALM      30.29F FOG
LEWISTONAUBURN CLOUDY    31  29  92 CALM      30.31F
AUGUSTA        CLOUDY    29  26  89 SE6       30.32F
WATERVILLE     CLOUDY    29  27  92 VRB3      30.30F
BANGOR         CLOUDY    28  27  96 E7        30.37F
GREENVILLE       N/A     24  24 100 SE8       30.23F
MILLINOCKET    LGT SNOW  26  26 100 SE7       30.36F VSB 1
HOULTON        CLOUDY    27   4  37 S5        30.37R
PRESQUE ISLE   CLOUDY    25   6  44 S10       30.37R WCI  15
FRENCHVILLE    CLOUDY    21  -6  30 E8        30.32S
CARIBOU        CLOUDY    23   5  46 E5        30.35R
$$

NHZ002-005-008-009-011-012-014-271100-
NEW HAMPSHIRE

CITY           SKY/WX    TMP DP  RH WIND       PRES   REMARKS
PORTSMOUTH     DRIZZLE   36  31  84 E10       30.27F FOG
ROCHESTER      CLOUDY    33  30  88 E3        30.27F FOG
NASHUA         LGT RAIN  34  33  96 E3        30.27F FOG
MANCHESTER     LGT RAIN  34  30  85 E3        30.26F FOG
CONCORD        MIX PCPN  33  31  92 E3        30.27F FOG
LACONIA        MIX PCPN  32  30  92 NE8       30.27S FOG
PLYMOUTH       MIX PCPN  32  31  96 E5        30.26F
BERLIN         CLOUDY    32  26  78 SE14G22   30.17F
WHITEFIELD     FRZ RAIN  33  30  88 CALM      30.14F
JAFFREY        CLOUDY    32  30  92 VRB5      30.20F
KEENE          CLOUDY    32  30  92 CALM      30.22F
LEBANON        FRZ RAIN  34  31  88 S5        30.20F
MT WASHINGTON  FRZ RAIN  30  30 100 SW47G60     N/A  VSB 0   WCI  12
$$

VTZ005-007-008-271100-
VERMONT

CITY           SKY/WX    TMP DP  RH WIND       PRES   REMARKS
ST JOHNSBURY     N/A     32  30  92 MISG      30.16F
MONTPELIER     FRZ RAIN  32  29  88 S14G23    30.17F FOG
BURLINGTON     LGT RAIN  36  32  85 SE12G21   30.08F
$$

MAZ007-012-024-CTZ003-RIZ002-NYZ038-NYZ072-271100-
SOUTHERN NEW ENGLAND AND NY

CITY           SKY/WX    TMP DP  RH WIND       PRES   REMARKS
BOSTON         DRIZZLE   36  36 100 E13       30.27F FOG
WORCESTER      FRZ RAIN  31  29  92 E8        30.20F VSB 1/4
NANTUCKET      CLOUDY    41  37  86 E18       30.24F
PROVIDENCE     DRIZZLE   36  34  92 E6        30.24F FOG
HARTFORD       LGT RAIN  34  33  96 N5        30.21F FOG
ALBANY         LGT RAIN  36  32  85 S8G17     30.12F
NEW YORK CITY  DRIZZLE   40  37  89 NE10      30.16F FOG
$$

ANZ081-ANZ082-ANZ150-NHZ014-MEZ023>029-271100-
COASTAL MARINE OBSERVATIONS

STATION/POSITION TIME  TEMP    WIND        PRES    WAVE
                       AIR SEA DIR/SP/G            HT/PER
                 (UTC) (F)     (DEG/KT/KT) (MB)    (FT/S)
MOUNT DESERT ROC 1000   33                 1028.7F
MATINICUS ROCK   0900   34     120/ 10/ 11 1027.8F
ISLE OF SHOALS   0900   37     100/ 15/ 17 1025.8F
JEFFREYS LEDGE   0906      41                N/A     3/ 4
CASHES LEDGE BUO 0950   36 40              1027.6F   2/ 3
GEORGES BANK BUO 0950   42 41              1027.2F   3/ 6
$$

.............KEY..............
   WCI - WIND CHILL
   TC  - TEMPERATURE IN CELSIUS
   VSB - VISIBILITY IN MILES
   HX  - HEAT INDEX
   FAIR- INDICATES FEW OR NO CLOUDS BELOW 12,000 FT, WITH NO
         SIGNIFICANT WEATHER AND/OR OBSTRUCTIONS TO VISIBILITY.






USA.gov is the U.S. government's official web portal to all federal, state and local government web resources and services.